Estación Meteorológica Peña el Pijo (Robertgarden) [ 11/16/19 01:54:26 CET ]

Fecha Hora Presion(HPa) Temp (°C) Humedad % Rocio (°C) Viento ( m/s) Direccion Lluvia 1Hora(mm) Lluvia 24H(mm) LLuvia Total(mm)
2019-Jun-08 01:09:01 1011.400 - - - - NNE     318.05
2019-Jun-08 02:08:52 1011.500 - - - - NNE     318.05
2019-Jun-08 03:11:07 1011.300 - - - - NNE     318.05
2019-Jun-08 04:09:07 1011.300 - - - - NNE     318.05
2019-Jun-08 05:09:12 1011.100 - - - - NNE     318.05
2019-Jun-08 06:09:13 1011.000 - - - - NNE     318.05
2019-Jun-08 07:09:11 1011.400 - - - - NNE     318.05
2019-Jun-08 08:09:39 1011.400 - - - - NNE     318.05
2019-Jun-08 09:09:24 1011.800 - - - - NNE     318.05
2019-Jun-08 10:08:55 1012.200 - - - - NNE     318.05
2019-Jun-08 11:09:27 1012.100 - - - - NNE     318.05
2019-Jun-08 12:08:56 1012.100 - - - - NNE     318.05
2019-Jun-08 13:09:13 1011.900 - - - - NNE     318.05
2019-Jun-08 14:08:46 1011.500 - - - - NNE     318.05
2019-Jun-08 15:09:19 1011.000 - - - - NNE     318.05
2019-Jun-08 16:09:39 1010.500 - - - - NNE     318.05
2019-Jun-08 17:09:14 1010.300 - - - - NNE     318.05
2019-Jun-08 18:09:38 1010.100 - - - - NNE     318.05
2019-Jun-08 19:09:13 1010.100 - - - - NNE     318.05
2019-Jun-08 20:09:16 1010.100 - - - - NNE     318.05
2019-Jun-08 21:09:51 1010.500 - - - - NNE     318.05
2019-Jun-08 22:09:19 1010.600 - - - - NNE     318.05
2019-Jun-08 23:08:43 1011.400 - - - - NNE     318.05

Temperatura Máxima:    Temperatura Mínima:
Presión Máxima:1012.200 Hpa    Presión Mínima:1010.100 Hpa


Volver